Hourly Data Report for September 12, 2017

All times are specified in Local Standard Time (LST). Add 1 hour to adjust for Daylight Saving Time where and when it is observed.

ALERT CLIMATE
NUNAVUT

82°30'00.000" N
62°20'00.000" W
65.40 m
2400305
71355
ZLT

Download Data

Hourly Data (September 2017)
Hourly Data Report for September 12, 2017
Temp Definition
°C
Dew Point Temp Definition
°C
Rel Hum Definition
%
Wind Dir Definition
10's deg

Wind Spd Definition
km/h
Visibility Definition
km
Stn Press Definition
kPa
Hmdx Definition


Wind Chill Definition


Weather Definition


TIME
00:00 -11.0 -11.9 93 5 5   100.25   -14 LegendNANA
01:00 -10.9 -11.8 93 36 2   100.31   -12 LegendNANA
02:00 -11.0 -11.8 93 9 2   100.37   -12 LegendNANA
03:00 -10.6 -11.4 93 24 2   100.43   -12 LegendNANA
04:00 -10.3 -11.1 93 33 3   100.49   -12 LegendNANA
05:00 -10.1 -11.0 93 12 4   100.56   -12 LegendNANA
06:00 -9.9 -10.8 93 11 1   100.61   -10 LegendNANA
07:00 -9.7 -10.6 94 18 2   100.64   -11 LegendNANA
08:00 -9.8 -10.6 94 6 3   100.66   -12 LegendNANA
09:00 -9.9 -10.7 94 7 6   100.68   -13 LegendNANA
10:00 -9.4 -10.3 94 8 3   100.72   -11 LegendNANA
11:00 -9.2 -10.2 92 8 1   100.71   -10 LegendNANA
12:00 -9.3 -10.3 92 5 3   100.73   -11 LegendNANA
13:00 -9.1 -10.8 87 4 3   100.76   -11 LegendNANA
14:00 -9.5 -11.7 84 28 3   100.76   -11 LegendNANA
15:00 -8.9 -11.3 83 27 2   100.77   -10 LegendNANA
16:00 -10.0 -11.5 89 36 4   100.81   -12 LegendNANA
17:00 -10.1 -11.1 92 34 1   100.86   -11 LegendNANA
18:00 -10.9 -12.1 91 30 10   100.88   -16 LegendNANA
19:00 -11.8 -12.6 94 28 9   100.90   -17 LegendNANA
20:00 -11.7 -12.5 93 29 7   100.94   -16 LegendNANA
21:00 -11.0 -11.7 95 33 2   100.98   -12 LegendNANA
22:00 -11.3 -12.1 93 29 7   100.97   -16 LegendNANA
23:00 -11.0 -11.9 93 0 1   100.99   -12 LegendNANA

Notes on Data Quality.

Legend

  • E = Estimated
  • M = Missing
  • NA = Not Available
  • ‡ = Partner data that is not subject to review by the National Climate Archives
Date modified: